Location: Complexul Astronomic Baia Mare
(47.6577°N, 23.5639°E)
Time: 20:01:03
(UTC+03:00)

ISS - Pass Details

Date: 29 March 2017
Orbit: 399 x 409 km, 51.6° (Epoch: 27 March)

Event Time Altitude Azimuth Distance (km) Brightness Sun altitude
Rises 21:05:41 0° 228° (SW) 2,302 0.4 -13.0°
Reaches altitude 10° 21:07:47 10° 222° (SW) 1,448 -0.8 -13.3°
Maximum altitude 21:10:55 47° 148° (SSE) 546 -3.6 -13.8°
Enters shadow 21:12:19 27° 89° (E) 810 -2.9 -14.0°
